Location: Breitenfeld
(46.8500°N, 15.6333°E)
Time: 17:58:12
(UTC+00:00)

CZ-4C R/B - Pass Details

Date: 09 April 2020
Orbit: 637 x 1365 km, 63.4° (Epoch: 01 June)

Event Time Altitude Azimuth Distance (km) Brightness Sun altitude
Rises 22:39:41 0° 314° (NW) 3,926 6.3 -35.0°
Reaches altitude 10° 22:42:34 10° 304° (NW) 3,069 5.5 -35.0°
Enters shadow 22:47:01 28° 270° (W) 2,158 4.2 -35.1°
